This demonstration page uses our WeatherBlox Daily Observations layout. Learn more.

Left ArrowRight Arrow

Hourly Observations for May 4, 2015

Temp ( °F °C ) Dew Point ( °F °C ) Humidity (%) Winds ( mph kmh ) Pressure ( in mb ) Visibility ( mi km ) Precip ( " mm )
12:11 am 00:11 Mostly Cloudy with Thunderstorms 70 21 55 13 60 60 WNW 8 13 29.85 1011 10 16 0.00 0.00
12:27 am 00:27 Cloudy with Thunderstorms 70 21 55 13 60 60 N 8 13 29.88 1012 5 8 0.00 0.00
12:58 am 00:58 Mostly Cloudy with Thunderstorms 68 20 55 13 64 64 VRB 2 4 29.92 1013 10 16 0.00 0.03
1:13 am 01:13 Mostly Cloudy 68 20 55 13 64 64 ENE 3 6 29.88 1012 10 16 0.00 0.00
1:58 am 01:58 Cloudy 64 18 57 14 78 78 N 8 13 29.90 1013 10 16 0.00 0.00
2:58 am 02:58 Mostly Cloudy 61 16.1 56 13.5 85 85 N 10 17 29.92 1013 10 16 0.00 0.00
3:58 am 03:58 Cloudy 62 16.6 56 13.2 80 80 NNE 10 17 29.91 1013 10 16 0.00 0.00
4:58 am 04:58 Cloudy 61 16.2 54 12 76 76 N 8 13 29.93 1014 10 16 0.00 0.00
5:58 am 05:58 Partly Cloudy 60 15.7 51 10.7 72 72 NW 6 9 29.97 1015 10 16 0.00 0.00
6:58 am 06:58 Cloudy 60 15.3 50 10.2 72 72 NNE 5 7 30.03 1017 10 16 0.00 0.00
7:02 am 07:02 Mostly Cloudy with Light Rain 59 15 50 10 72 72 NNE 8 13 30.03 1017 10 16 0.00 0.00
7:06 am 07:06 Mostly Cloudy 59 15 50 10 72 72 NE 9 15 30.03 1017 10 16 0.00 0.00
7:09 am 07:09 Mostly Cloudy with Light Rain 59 15 50 10 72 72 NE 8 13 30.03 1017 8 13 0.00 0.00
7:58 am 07:58 Cloudy with Light Rain 57 14.1 51 10.6 80 80 N 13 20 30.00 1016 10 16 0.03 0.76
8:58 am 08:58 Mostly Sunny 60 15.4 50 10.2 71 71 SE 5 7 30.06 1018 10 16 0.00 0.03
9:58 am 09:58 Mostly Sunny 62 16.7 51 10.8 68 68 Calm 30.07 1018 10 16 0.00 0.00
10:27 am 10:27 Partly Cloudy with Light Rain 63 17 52 11 68 68 NNE 10 17 30.03 1017 10 16 0.00 0.00
10:36 am 10:36 Sunny 63 17 52 11 68 68 NNE 8 13 30.03 1017 10 16 0.00 0.00
10:58 am 10:58 Sunny 62 16.9 52 11.3 70 70 NNE 10 17 30.06 1018 10 16 0.00 0.03
11:58 am 11:58 Mostly Cloudy 66 18.9 56 13.1 69 69 ENE 12 19 30.07 1018 10 16 0.00 0.00
12:27 pm 12:27 Partly Cloudy with Light Rain 64 18 55 13 73 73 NE 14 22 30.03 1017 10 16 0.00 0.00
12:56 pm 12:56 Sunny 64 18 57 14 78 78 ENE 9 15 30.00 1016 10 16 0.00 0.00
12:58 pm 12:58 Sunny 64 17.9 57 14 78 78 ENE 10 17 30.04 1017 10 16 0.00 0.03
1:06 pm 13:06 Partly Cloudy with Light Rain 64 18 57 14 78 78 VRB 6 9 30.03 1017 10 16 0.00 0.00
1:36 pm 13:36 Mostly Sunny 64 18 59 15 83 83 VRB 2 4 30.03 1017 10 16 0.00 0.00
1:53 pm 13:53 Partly Cloudy with Drizzle 64 18 57 14 78 78 ESE 6 9 30.06 1018 10 16 0.00 0.00
1:58 pm 13:58 Partly Cloudy with Light Rain 65 18.4 58 14.5 78 78 ESE 5 7 30.08 1019 10 16 0.00 0.03
2:58 pm 14:58 Partly Cloudy with Light Rain 66 18.7 60 15.3 81 81 ENE 6 9 30.07 1018 9 14 0.02 0.51
3:05 pm 15:05 Mostly Sunny 66 19 59 15 78 78 NE 7 11 30.03 1017 10 16 0.00 0.00
3:58 pm 15:58 Mostly Cloudy 66 18.8 60 15.6 82 82 N 6 9 30.07 1018 10 16 0.00 0.03
4:03 pm 16:03 Mostly Cloudy with Drizzle 66 19 61 16 83 83 N 7 11 30.03 1017 10 16 0.00 0.00
4:18 pm 16:18 Mostly Cloudy 66 19 61 16 83 83 NNE 7 11 30.03 1017 10 16 0.00 0.00
4:23 pm 16:23 Mostly Cloudy with Drizzle 66 19 61 16 83 83 N 8 13 30.03 1017 10 16 0.00 0.00
4:31 pm 16:31 Mostly Cloudy 66 19 61 16 83 83 NNE 8 13 30.03 1017 10 16 0.00 0.00
4:58 pm 16:58 Mostly Cloudy 66 18.7 60 15.4 81 81 N 8 13 30.06 1018 10 16 0.00 0.03
5:00 pm 17:00 Mostly Cloudy with Light Rain 66 19 59 15 78 78 N 6 9 30.03 1017 8 13 0.00 0.00
5:22 pm 17:22 Partly Cloudy with Light Rain 64 18 61 16 88 88 N 10 17 30.03 1017 8 13 0.00 0.00
5:44 pm 17:44 Partly Cloudy with Light Rain 61 16 59 15 94 94 NNE 8 13 30.06 1018 8 13 0.00 0.00
5:56 pm 17:56 Mostly Sunny 61 16 59 15 94 94 NNE 9 15 30.06 1018 10 16 0.00 0.00
5:58 pm 17:58 Mostly Sunny 61 16 59 15 94 94 NNE 9 15 30.06 1018 10 16 0.04 1.02
5:59 pm 17:59 Partly Cloudy with Light Rain 61 16 59 15 94 94 NNE 8 13 30.06 1018 10 16 0.00 0.00
6:17 pm 18:17 Partly Cloudy 61 16 59 15 94 94 N 8 13 30.00 1016 10 16 0.00 0.00
6:22 pm 18:22 Partly Cloudy with Drizzle 61 16 59 15 94 94 N 8 13 30.00 1016 10 16 0.00 0.00
6:47 pm 18:47 Mostly Sunny 63 17 59 15 88 88 N 8 13 30.03 1017 9 14 0.00 0.00
6:58 pm 18:58 Sunny 62 16.7 60 15.5 93 93 N 7 11 30.06 1018 10 16 0.01 0.25
7:09 pm 19:09 Partly Cloudy with Light Rain 63 17 61 16 94 94 N 9 15 30.03 1017 8 13 0.00 0.00
7:43 pm 19:43 Sunny 63 17 61 16 94 94 NNE 8 13 30.00 1016 8 13 0.00 0.00
7:52 pm 19:52 Mostly Cloudy 63 17 59 15 88 88 NNE 8 13 30.00 1016 9 14 0.00 0.00
7:58 pm 19:58 Mostly Cloudy 62 16.7 60 15.6 93 93 NNE 9 15 30.05 1018 9 14 0.01 0.25
8:58 pm 20:58 Cloudy 61 16.1 58 14.3 89 89 NE 10 17 30.05 1018 10 16 0.00 0.00
9:58 pm 21:58 Cloudy 60 15.8 57 13.9 89 89 NE 13 20 30.06 1018 10 16 0.00 0.00
10:58 pm 22:58 Mostly Cloudy 60 15.6 57 13.8 89 89 ENE 8 13 30.08 1019 10 16 0.00 0.00
11:01 pm 23:01 Mostly Cloudy 61 16 57 14 88 88 ENE 9 15 30.06 1018 10 16 0.00 0.00
11:03 pm 23:03 Mostly Cloudy 61 16 57 14 88 88 ENE 8 13 30.06 1018 10 16 0.00 0.00
11:20 pm 23:20 Mostly Cloudy 61 16 57 14 88 88 ENE 8 13 30.09 1019 10 16 0.00 0.00
11:30 pm 23:30 Mostly Cloudy 61 16 57 14 88 88 E 6 9 30.09 1019 10 16 0.00 0.00
11:41 pm 23:41 Mostly Cloudy 61 16 57 14 88 88 SE 3 6 30.09 1019 10 16 0.00 0.00
11:51 pm 23:51 Mostly Cloudy 61 16 59 15 94 94 ENE 5 7 30.09 1019 10 16 0.00 0.00
11:57 pm 23:57 Mostly Cloudy 61 16 57 14 88 88 ENE 3 6 30.09 1019 10 16 0.00 0.00
11:58 pm 23:58 Mostly Cloudy 61 16 57 14 88 88 ENE 3 6 30.08 1019 10 16 0.00 0.00

Powered by AerisWeather